FW5399 Weather Reports


Display with metric or nautical units.
time (UTC)temp
F
wind
direction
speed
MPH
gust
MPH
rain 1hr
in
rain 24hr
in
rain mn
in
humidity
%
barometer
mb
20260903211444 61 5 2.0 13.0 0.00 0.00 0.00 76 1014.6
20260903211342 61 279 2.0 13.0 0.00 0.00 0.00 76 1014.6
20260903210444 61 291 1.0 8.0 0.00 0.00 0.00 78 1014.7
20260903205942 60 234 1.0 8.0 0.00 0.00 0.00 81 1014.7
20260903205844 60 303 1.0 5.0 0.00 0.00 0.00 82 1014.7
20260903204936 60 176 1.0 5.0 0.00 0.00 0.00 82 1014.7
20260903204439 60 182 1.0 6.0 0.00 0.00 0.00 83 1014.8
20260903203938 59 164 2.0 6.0 0.00 0.00 0.00 83 1014.9
20260903203438 59 133 1.0 6.0 0.00 0.00 0.00 82 1014.8
20260903202938 59 176 1.0 3.0 0.00 0.00 0.00 82 1014.9
20260903202437 59 222 1.0 4.0 0.00 0.00 0.00 81 1014.9
20260903201937 60 322 1.0 4.0 0.00 0.00 0.00 81 1014.9
20260903201438 60 288 1.0 4.0 0.00 0.00 0.00 80 1014.9
20260903200936 60 187 2.0 4.0 0.00 0.00 0.00 80 1014.8
20260903200435 60 191 2.0 9.0 0.00 0.00 0.00 80 1014.8
20260903195935 60 224 1.0 9.0 0.00 0.00 0.00 80 1014.9
20260903195438 60 234 1.0 3.0 0.00 0.00 0.00 82 1014.7
20260903194932 59 215 1.0 3.0 0.00 0.00 0.00 81 1014.7
20260903194842 59 291 0.0 3.0 0.00 0.00 0.00 83 1014.8
20260903193932 59 301 0.0 2.0 0.00 0.00 0.00 84 1014.9
20260903193434 58 270 0.0 2.0 0.00 0.00 0.00 86 1015.0
20260903193321 57 246 0.0 2.0 0.00 0.00 0.00 90 1015.0
20260903192429 56 246 0.0 2.0 0.00 0.00 0.00 92 1015.1
20260903191927 55 357 0.0 2.0 0.00 0.00 0.00 94 1015.1
20260903191426 53 320 0.0 4.0 0.00 0.00 0.00 96 1015.2
20260903191313 53 322 0.0 4.0 0.00 0.00 0.00 97 1015.0
20260903190825 52 331 0.0 3.0 0.00 0.00 0.00 97 1015.1
20260903185923 51 241 0.0 2.0 0.00 0.00 0.00 97 1015.1
20260903185417 51 244 0.0 0.0 0.00 0.00 0.00 97 1015.2
20260903184912 51 255 0.0 0.0 0.00 0.00 0.00 96 1015.2
20260903184405 51 255 0.0 1.0 0.00 0.00 0.00 96 1015.2
20260903184031 52 199 0.0 0.0 0.00 0.00 0.00 96 1015.3
20260903182847 52 199 0.0 1.0 0.00 0.00 0.00 95 1015.1
20260903182342 53 199 0.0 1.0 0.00 0.00 0.00 95 1015.0
20260903181836 54 199 0.0 1.0 0.00 0.00 0.00 95 1015.1
20260903181331 54 199 0.0 1.0 0.00 0.00 0.00 95 1015.1
20260903180823 54 204 0.0 1.0 0.00 0.00 0.00 96 1015.1
20260903180317 54 203 0.0 2.0 0.00 0.00 0.00 97 1015.1
20260903175811 54 203 1.0 8.0 0.00 0.00 0.00 97 1015.1
20260903175306 54 122 1.0 8.0 0.00 0.00 0.00 99 1015.0
20260903174801 53 137 0.0 2.0 0.00 0.00 0.00 98 1015.0
20260903174253 53 160 0.0 1.0 0.00 0.00 0.00 98 1014.9
20260903173747 53 160 0.0 1.0 0.00 0.00 0.00 98 1014.9
20260903173241 53 159 0.0 1.0 0.00 0.00 0.00 98 1014.9
20260903172735 53 159 0.0 1.0 0.00 0.00 0.00 98 1015.0
20260903172232 53 160 0.0 3.0 0.00 0.00 0.00 99 1015.0
20260903171724 53 159 0.0 3.0 0.00 0.00 0.00 99 1014.9
20260903171217 52 209 0.0 4.0 0.00 0.00 0.00 99 1015.0
20260903170712 52 208 0.0 4.0 0.00 0.00 0.00 99 1015.2
20260903170206 51 137 0.0 1.0 0.00 0.00 0.00 98 1015.2
20260903165701 51 137 0.0 1.0 0.00 0.00 0.00 98 1015.2
20260903165551 51 137 0.0 0.0 0.00 0.00 0.00 98 1015.2
20260903164647 51 137 0.0 0.0 0.00 0.00 0.00 98 1015.1
20260903164141 51 137 0.0 1.0 0.00 0.00 0.00 98 1015.1
20260903163639 51 137 0.0 1.0 0.00 0.00 0.00 98 1014.9
20260903163131 51 137 0.0 0.0 0.00 0.00 0.00 97 1014.9
20260903162623 52 137 0.0 0.0 0.00 0.00 0.00 97 1014.9
20260903162117 52 137 0.0 0.0 0.00 0.00 0.00 97 1014.9
20260903161617 52 137 0.0 0.0 0.00 0.00 0.00 97 1014.9
20260903161114 52 137 0.0 0.0 0.00 0.00 0.00 97 1014.9
20260903160613 52 137 0.0 0.0 0.00 0.00 0.00 97 1014.9
20260903160109 53 137 0.0 0.0 0.00 0.00 0.00 97 1014.8
20260903155616 53 137 0.0 1.0 0.00 0.00 0.00 97 1014.8
20260903155110 53 137 0.0 1.0 0.00 0.00 0.00 97 1015.0
20260903154609 53 137 0.0 0.0 0.00 0.00 0.00 97 1014.8
20260903154106 53 137 0.0 0.0 0.00 0.00 0.00 97 1014.9
20260903153606 53 137 0.0 0.0 0.00 0.00 0.00 97 1015.0
20260903153104 53 137 0.0 0.0 0.00 0.00 0.00 97 1014.9
20260903152604 53 137 0.0 0.0 0.00 0.00 0.00 97 1014.8
20260903152101 53 137 0.0 0.0 0.00 0.00 0.00 97 1014.8
20260903151601 53 137 0.0 0.0 0.00 0.00 0.00 97 1014.8
20260903151102 53 137 0.0 0.0 0.00 0.00 0.00 96 1015.0
20260903150556 53 137 0.0 0.0 0.00 0.00 0.00 96 1015.1
20260903150058 53 137 0.0 0.0 0.00 0.00 0.00 96 1015.1
20260903145558 53 137 0.0 0.0 0.00 0.00 0.00 96 1015.1
20260903145451 53 137 0.0 0.0 0.00 0.00 0.00 96 1015.2
20260903144601 54 137 0.0 0.0 0.00 0.00 0.00 96 1015.3
20260903144445 54 137 0.0 0.0 0.00 0.00 0.00 96 1015.3
20260903143559 54 137 0.0 0.0 0.00 0.00 0.00 96 1015.5
20260903143101 54 137 0.0 0.0 0.00 0.00 0.00 96 1015.5
20260903142559 54 137 0.0 0.0 0.00 0.00 0.00 96 1015.4
20260903142103 54 137 0.0 0.0 0.00 0.00 0.00 96 1015.7
20260903141610 54 137 0.0 0.0 0.00 0.00 0.00 95 1015.6
20260903141100 54 137 0.0 0.0 0.00 0.00 0.00 95 1015.6
20260903140559 54 137 0.0 1.0 0.00 0.00 0.00 96 1015.9
20260903140114 54 137 0.0 1.0 0.00 0.00 0.00 96 1015.8
20260903135559 54 137 0.0 1.0 0.00 0.00 0.00 96 1015.8
20260903135101 54 178 0.0 1.0 0.00 0.00 0.00 95 1016.0
20260903134603 54 178 0.0 1.0 0.00 0.00 0.00 96 1016.0
20260903134106 54 177 0.0 1.0 0.00 0.00 0.00 95 1015.9
20260903133610 54 178 0.0 0.0 0.00 0.00 0.00 95 1016.1
20260903133109 54 178 0.0 0.0 0.00 0.00 0.00 95 1016.0
20260903132603 54 178 0.0 1.0 0.00 0.00 0.00 95 1016.1
20260903132056 54 179 0.0 1.0 0.00 0.00 0.00 96 1016.1
20260903131550 54 179 0.0 0.0 0.00 0.00 0.00 95 1016.1
20260903131047 53 179 0.0 0.0 0.00 0.00 0.00 95 1016.2
20260903130545 54 179 0.0 0.0 0.00 0.00 0.00 95 1016.1
20260903130046 54 179 0.0 0.0 0.00 0.00 0.00 94 1016.2
20260903125938 54 179 0.0 0.0 0.00 0.00 0.00 94 1016.2
20260903125043 54 179 0.0 1.0 0.00 0.00 0.00 94 1016.2
20260903124550 54 179 0.0 1.0 0.00 0.00 0.00 94 1016.3
20260903124048 54 178 0.0 1.0 0.00 0.00 0.00 94 1016.3
20260903123548 54 179 0.0 1.0 0.00 0.00 0.00 94 1016.3
20260903123043 54 178 0.0 0.0 0.00 0.00 0.00 94 1016.3
20260903122939 54 178 0.0 0.0 0.00 0.00 0.00 93 1016.2
20260903122040 54 178 0.0 0.0 0.00 0.00 0.00 93 1016.3
20260903121539 54 179 0.0 1.0 0.00 0.00 0.00 93 1016.4
20260903121038 54 179 0.0 1.0 0.00 0.00 0.00 93 1016.7
20260903120537 54 178 0.0 2.0 0.00 0.00 0.00 93 1016.5
20260903120037 54 179 0.0 2.0 0.00 0.00 0.00 93 1016.5
20260903115951 54 236 0.0 0.0 0.00 0.00 0.00 93 1016.7
20260903115432 54 236 0.0 0.0 0.00 0.00 0.00 93 1016.7
20260903114534 54 236 0.0 0.0 0.00 0.00 0.00 93 1016.9
20260903114514 54 236 0.0 0.0 0.00 0.00 0.00 92 1016.8
20260903113708 54 236 0.0 0.0 0.00 0.00 0.00 92 1016.9
20260903112537 54 236 0.0 0.0 0.00 0.00 0.00 92 1016.9
20260903112441 54 236 0.0 0.0 0.00 0.00 0.00 92 1017.0
20260903111535 55 236 0.0 0.0 0.00 0.00 0.00 92 1016.9
20260903111425 55 236 0.0 0.0 0.00 0.00 0.00 92 1017.1
20260903110557 55 236 0.0 0.0 0.00 0.00 0.00 92 1017.1
20260903110030 54 236 0.0 0.0 0.00 0.00 0.00 91 1017.2
20260903105530 54 236 0.0 1.0 0.00 0.00 0.00 91 1017.2
20260903105031 54 236 0.0 1.0 0.00 0.00 0.00 91 1017.2
20260903104528 54 236 0.0 0.0 0.00 0.00 0.00 91 1017.4
20260903104026 54 236 0.0 0.0 0.00 0.00 0.00 91 1017.4
20260903103529 54 236 0.0 0.0 0.00 0.00 0.00 91 1017.2
20260903103405 54 236 0.0 1.0 0.00 0.00 0.00 91 1017.3
20260903102527 54 236 0.0 1.0 0.00 0.00 0.00 91 1017.4
20260903102024 54 296 0.0 1.0 0.00 0.00 0.00 89 1017.5
20260903101525 54 297 0.0 1.0 0.00 0.00 0.00 89 1017.5
20260903101024 54 297 0.0 1.0 0.00 0.00 0.00 89 1017.4
20260903100522 55 297 0.0 1.0 0.00 0.00 0.00 88 1017.6
20260903100017 55 297 0.0 1.0 0.00 0.00 0.00 88 1017.6
20260903095516 55 297 0.0 4.0 0.00 0.00 0.00 87 1017.6
20260903095015 56 297 0.0 4.0 0.00 0.00 0.00 87 1017.7
20260903094514 56 146 0.0 1.0 0.00 0.00 0.00 87 1017.7
20260903094012 56 209 0.0 1.0 0.00 0.00 0.00 86 1017.7
20260903093511 56 209 0.0 1.0 0.00 0.00 0.00 86 1018.0
20260903093009 56 210 0.0 1.0 0.00 0.00 0.00 86 1017.7
20260903092506 56 209 1.0 3.0 0.00 0.00 0.00 86 1017.8
20260903092004 56 209 1.0 3.0 0.00 0.00 0.00 86 1017.6
20260903091508 55 251 0.0 1.0 0.00 0.00 0.00 86 1017.7
20260903091008 56 309 0.0 1.0 0.00 0.00 0.00 85 1017.7
20260903090712 56 309 0.0 1.0 0.00 0.00 0.00 85 1017.6
20260903085501 56 309 0.0 2.0 0.00 0.00 0.00 83 1017.7
20260903085002 56 309 0.0 2.0 0.00 0.00 0.00 83 1017.8
20260903084502 56 319 0.0 1.0 0.00 0.00 0.00 82 1017.6
20260903084355 57 280 0.0 0.0 0.00 0.00 0.00 81 1017.6
20260903083454 57 279 0.0 1.0 0.00 0.00 0.00 80 1017.6
20260903083340 57 281 0.0 2.0 0.00 0.00 0.00 80 1017.7
20260903082441 57 281 0.0 3.0 0.00 0.00 0.00 79 1017.7
20260903082339 58 293 0.0 4.0 0.00 0.00 0.00 79 1017.7
20260903081431 58 248 1.0 8.0 0.00 0.00 0.00 79 1017.5
20260903080924 58 320 1.0 8.0 0.00 0.00 0.00 78 1017.5
20260903080418 58 218 0.0 4.0 0.00 0.00 0.00 78 1017.5
20260903080324 58 310 0.0 4.0 0.00 0.00 0.00 78 1017.6
20260903075822 58 270 0.0 4.0 0.00 0.00 0.00 78 1017.5
20260903074901 58 257 0.0 2.0 0.00 0.00 0.00 78 1017.6
20260903074353 58 255 0.0 4.0 0.00 0.00 0.00 78 1017.6
20260903073847 58 295 1.0 4.0 0.00 0.00 0.00 76 1017.5
20260903073342 58 298 1.0 4.0 0.00 0.00 0.00 77 1017.5
20260903072835 58 357 1.0 4.0 0.00 0.00 0.00 77 1017.4
20260903072502 58 310 1.0 4.0 0.00 0.00 0.00 77 1017.4
20260903071318 58 331 0.0 2.0 0.00 0.00 0.00 78 1017.5
20260903070811 58 252 0.0 2.0 0.00 0.00 0.00 77 1017.5
20260903070306 58 290 0.0 2.0 0.00 0.00 0.00 77 1017.5
20260903065801 58 285 0.0 4.0 0.00 0.00 0.00 77 1017.5
20260903065253 58 308 0.0 4.0 0.00 0.00 0.00 76 1017.3
20260903065149 58 281 0.0 2.0 0.00 0.00 0.00 76 1017.4
20260903064242 58 277 0.0 2.0 0.00 0.00 0.00 75 1017.3
20260903063735 59 251 0.0 3.0 0.00 0.00 0.00 75 1017.0
20260903063231 59 300 0.0 3.0 0.00 0.00 0.00 74 1017.0
20260903062724 59 305 0.0 6.0 0.00 0.00 0.00 74 1017.0
20260903062217 59 318 0.0 6.0 0.00 0.00 0.00 74 1017.0
20260903061711 59 299 0.0 3.0 0.00 0.00 0.00 74 1017.0
20260903061205 59 335 1.0 4.0 0.00 0.00 0.00 74 1016.9
20260903060702 59 327 0.0 4.0 0.00 0.00 0.00 74 1017.0
20260903060153 60 281 0.0 3.0 0.00 0.00 0.00 74 1016.8
20260903060059 60 328 0.0 3.0 0.00 0.00 0.00 73 1016.9
20260903055142 60 296 0.0 3.0 0.00 0.00 0.00 73 1016.9
20260903055034 61 298 0.0 4.0 0.00 0.00 0.00 72 1016.8
20260903054143 61 296 1.0 4.0 0.00 0.00 0.00 72 1016.8
20260903053641 61 311 1.0 6.0 0.00 0.00 0.00 71 1016.9
20260903053142 61 293 1.0 6.0 0.00 0.00 0.00 71 1016.9
20260903053104 62 300 0.0 4.0 0.00 0.00 0.00 70 1016.9
20260903052140 62 2 0.0 3.0 0.00 0.00 0.00 69 1016.9
20260903051640 62 315 0.0 4.0 0.00 0.00 0.00 67 1016.8
20260903051142 62 296 0.0 4.0 0.00 0.00 0.00 67 1016.8
20260903050647 63 238 0.0 3.0 0.00 0.00 0.00 67 1016.8
20260903050525 63 344 0.0 3.0 0.00 0.00 0.00 67 1016.7
20260903045639 63 337 0.0 3.0 0.00 0.00 0.00 66 1016.7
20260903045138 64 293 1.0 7.0 0.00 0.00 0.00 65 1016.7
20260903044635 64 303 1.0 7.0 0.00 0.00 0.00 64 1016.5
20260903044134 65 273 0.0 4.0 0.00 0.00 0.00 62 1016.4
20260903043634 66 302 0.0 2.0 0.00 0.00 0.00 62 1016.4
20260903043339 67 306 0.0 2.0 0.00 0.00 0.00 62 1016.3
20260903042131 67 342 1.0 5.0 0.00 0.00 0.00 61 1016.4
20260903041631 67 326 1.0 4.0 0.00 0.00 0.00 59 1016.4
20260903041132 67 333 1.0 5.0 0.00 0.00 0.00 58 1016.3
20260903040630 67 307 1.0 6.0 0.00 0.00 0.00 57 1016.5
20260903040131 68 320 0.0 6.0 0.00 0.00 0.00 55 1016.5
20260903035630 68 253 0.0 3.0 0.00 0.00 0.00 58 1016.5
20260903035313 67 331 1.0 5.0 0.00 0.00 0.00 57 1016.5
20260903034530 68 324 1.0 4.0 0.00 0.00 0.00 56 1016.7
20260903033630 69 284 1.0 4.0 0.00 0.00 0.00 57 1016.7
20260903033132 69 291 1.0 4.0 0.00 0.00 0.00 56 1016.8
20260903032630 69 266 1.0 4.0 0.00 0.00 0.00 58 1016.8
20260903032129 69 307 1.0 4.0 0.00 0.00 0.00 57 1016.8
20260903031629 69 291 1.0 3.0 0.00 0.00 0.00 58 1016.9
20260903031136 69 357 1.0 6.0 0.00 0.00 0.00 59 1016.9
20260903030632 68 315 1.0 6.0 0.00 0.00 0.00 58 1016.8
20260903030127 69 303 1.0 4.0 0.00 0.00 0.00 56 1016.9
20260903030059 69 326 1.0 4.0 0.00 0.00 0.00 55 1016.9
20260903025122 69 298 1.0 4.0 0.00 0.00 0.00 55 1017.0
20260903024614 69 310 1.0 5.0 0.00 0.00 0.00 59 1016.8
20260903024108 68 301 1.0 6.0 0.00 0.00 0.00 61 1017.0
20260903023602 69 243 1.0 6.0 0.00 0.00 0.00 57 1016.9
20260903023057 69 319 1.0 5.0 0.00 0.00 0.00 57 1016.9
20260903023005 69 310 1.0 5.0 0.00 0.00 0.00 61 1016.9
20260903022044 68 293 1.0 5.0 0.00 0.00 0.00 60 1016.9
20260903021538 67 14 0.0 5.0 0.00 0.00 0.00 60 1016.9
20260903021035 66 238 0.0 3.0 0.00 0.00 0.00 60 1016.9
20260903020527 66 340 0.0 3.0 0.00 0.00 0.00 56 1016.9
20260903020024 66 312 1.0 10.0 0.00 0.00 0.00 56 1016.9
20260903015513 66 326 2.0 10.0 0.00 0.00 0.00 53 1016.9
20260903015428 67 348 2.0 13.0 0.00 0.00 0.00 56 1017.0
20260903014502 67 329 2.0 13.0 0.00 0.00 0.00 53 1017.0
20260903013956 68 231 1.0 4.0 0.00 0.00 0.00 53 1017.1
20260903013452 68 287 1.0 3.0 0.00 0.00 0.00 55 1017.4
20260903012945 67 311 2.0 9.0 0.00 0.00 0.00 54 1017.6
20260903012438 68 239 2.0 9.0 0.00 0.00 0.00 55 1017.6
20260903012110 69 316 1.0 4.0 0.00 0.00 0.00 54 1017.7
20260903010921 67 284 1.0 6.0 0.00 0.00 0.00 61 1017.8
20260903010420 66 268 1.0 6.0 0.00 0.00 0.00 61 1017.9
20260903005908 67 227 1.0 3.0 0.00 0.00 0.00 56 1018.0
20260903005403 66 295 1.0 4.0 0.00 0.00 0.00 57 1018.1
20260903005306 65 218 1.0 4.0 0.00 0.00 0.00 56 1018.1
20260903004814 66 279 0.0 2.0 0.00 0.00 0.00 57 1018.4
20260903003844 67 275 0.0 3.0 0.00 0.00 0.00 59 1018.5
20260903003338 67 1 1.0 6.0 0.00 0.00 0.00 57 1018.5
20260903003301 67 274 1.0 6.0 0.00 0.00 0.00 55 1018.5
20260903002326 67 215 1.0 4.0 0.00 0.00 0.00 56 1018.7
20260903002221 66 5 0.0 4.0 0.00 0.00 0.00 61 1018.8
20260903001318 68 305 0.0 3.0 0.00 0.00 0.00 60 1018.9
20260903000809 67 307 1.0 3.0 0.00 0.00 0.00 63 1018.9
20260903000303 67 326 1.0 3.0 0.00 0.00 0.00 62 1018.9
20260902235756 66 347 1.0 3.0 0.00 0.00 0.00 63 1019.0
20260902235251 66 283 1.0 3.0 0.00 0.00 0.00 62 1019.0
20260902234745 67 286 0.0 2.0 0.00 0.00 0.00 64 1019.1
20260902234239 65 348 0.0 5.0 0.00 0.00 0.00 64 1019.2
20260902233732 65 238 0.0 3.0 0.00 0.00 0.00 63 1019.1
20260902233226 65 187 1.0 3.0 0.00 0.00 0.00 65 1019.1
20260902232722 64 217 0.0 3.0 0.00 0.00 0.00 64 1019.2
20260902232214 65 229 0.0 3.0 0.00 0.00 0.00 66 1019.3
20260902232109 64 304 1.0 3.0 0.00 0.00 0.00 67 1019.2
20260902231208 63 250 0.0 2.0 0.00 0.00 0.00 67 1019.1
20260902230709 64 225 0.0 2.0 0.00 0.00 0.00 65 1019.1
20260902230209 63 233 0.0 2.0 0.00 0.00 0.00 66 1019.3
20260902225708 63 255 0.0 2.0 0.00 0.00 0.00 68 1019.5
20260902225208 62 239 0.0 3.0 0.00 0.00 0.00 69 1019.6
20260902224840 61 215 1.0 3.0 0.00 0.00 0.00 69 1019.6
20260902223704 60 125 2.0 5.0 0.00 0.00 0.00 72 1019.6
20260902223205 59 191 1.0 5.0 0.00 0.00 0.00 72 1019.6
20260902222703 60 178 1.0 3.0 0.00 0.00 0.00 71 1019.7
20260902222202 59 138 1.0 4.0 0.00 0.00 0.00 73 1019.8
20260902221709 59 202 1.0 4.0 0.00 0.00 0.00 72 1019.9
20260902221210 59 200 1.0 5.0 0.00 0.00 0.00 74 1019.8
20260902220711 58 183 2.0 5.0 0.00 0.00 0.00 75 1019.8
20260902220206 58 158 1.0 4.0 0.00 0.00 0.00 75 1019.9
20260902215704 58 186 1.0 4.0 0.00 0.00 0.00 75 1020.0
20260902215205 59 182 0.0 2.0 0.00 0.00 0.00 74 1020.0
20260902214848 59 181 0.0 2.0 0.00 0.00 0.00 74 1020.2
20260902213701 58 122 1.0 4.0 0.00 0.00 0.00 77 1020.1
20260902213611 57 241 1.0 4.0 0.00 0.00 0.00 75 1020.0
20260902212703 58 198 1.0 4.0 0.00 0.00 0.00 75 1020.0
20260902212201 58 199 1.0 3.0 0.00 0.00 0.00 76 1020.1